Regional Weather Roundup
Issued by NWS San Angelo, TX

Home | Current Version | Previous Version | Text Only | Print | Product List | Glossary On
Versions: 1 2 3 4 5 6 7 8 9 10 11 12 13 14 15 16 17 18 19 20 21 22 23 24 25 26 27 28 29 30 31 32 33 34 35 36 37 38 39 40 41 42 43 44 45 46 47 48 49 50
000
ASUS44 KSJT 280811
RWRSJT
WEST CENTRAL TEXAS REGIONAL WEATHER ROUNDUP
NATIONAL WEATHER SERVICE SAN ANGELO TX
300 AM CDT SUN AUG 28 2016

NOTE: "FAIR" INDICATES FEW OR NO CLOUDS BELOW 12,000 FEET WITH NO
SIGNIFICANT WEATHER AND/OR OBSTRUCTIONS TO VISIBILITY.

TXZ049-054-064>066-071>073-076>078-098-099-113-114-127-128-139-140-
154-155-168>170-280900
...LOCATIONS ACROSS WEST CENTRAL TEXAS...

CITY           SKY/WX    TMP DP  RH WIND       PRES   REMARKS
SAN ANGELO     CLOUDY    72  67  84 SE7       30.04F
ABILENE        CLEAR     72  69  90 S7        30.06S
DYESS AFB      CLEAR     71  69  91 S5        30.03F
JUNCTION       CLOUDY    72  69  90 CALM      30.05F
SWEETWATER     CLEAR     72  68  88 SE6       30.09S
BROWNWOOD      CLOUDY    72  70  94 CALM      30.04F
COLEMAN        SUNNY     74  67  80 S3        30.06S
SONORA         CLOUDY    72  68  88 CALM      30.10S
OZONA          FAIR      70  66  88 CALM      30.09S
BRADY          NOT AVBL
$$

TEXAS PANHANDLE/OKLAHOMA PANHANDLE

CITY           SKY/WX    TMP DP  RH WIND       PRES   REMARKS
AMARILLO       MOCLDY    67  62  84 SE8       30.15F
BORGER         TSTM      70  65  84 S9        30.13R
CANADIAN       CLEAR     70  64  81 S13       30.07F
DALHART        CLOUDY    64  59  83 SE9       30.14F
DUMAS          LGT RAIN  63  61  93 W6        30.15F
GUYMON         NOT AVBL
HEREFORD       CLOUDY    66  62  86 S14G21    30.16F
PAMPA          CLOUDY    69  66  90 S8        30.14R
PERRYTON       PTCLDY    68  63  84 S10       30.10R
$$

SOUTHERN PANHANDLE/SOUTH PLAINS/ROLLING PLAINS

CITY           SKY/WX    TMP DP  RH WIND       PRES   REMARKS
LUBBOCK        MOCLDY    67  64  90 SE8       30.11F
SNYDER           N/A     69  67  93 CALM      30.08F
CHILDRESS      CLEAR     70  66  87 E5        30.07F
SEMINOLE       SUNNY     67  63  87 CALM      30.12S
$$

PERMIAN BASIN

CITY           SKY/WX    TMP DP  RH WIND       PRES   REMARKS
MIDLAND        CLEAR     73  62  68 SE6       30.08S
ODESSA         CLEAR     73  62  68 SE7       30.09F
WINK           CLEAR     72  64  76 SE9       30.04S
$$

FAR WEST/SOUTHWEST MOUNTAINS/TRANS PECOS

CITY           SKY/WX    TMP DP  RH WIND       PRES   REMARKS
ALPINE         SUNNY     66  59  78 SW7       30.20S
DRYDEN           N/A     71  66  84 N7        30.03F
EL PASO        PTCLDY    68  62  81 S5        30.10F
FORT STOCKTON  CLEAR     70  61  73 S10       30.06F
GUADALUPE PASS CLOUDY    69  55  60 N6        30.22R
MARFA          MOCLDY   N/A N/A N/A CALM      30.20S
PECOS          SUNNY     72  65  80 E7        30.03S
$$

DALLAS/FORT WORTH METROPLEX

CITY           SKY/WX    TMP DP  RH WIND       PRES   REMARKS
DFW AIRPORT    PTCLDY    78  71  79 SE7       30.02S
FTW MEACHAM    CLEAR     78  70  76 SE9       30.02F
DAL-EXECUTIVE  CLEAR     76  72  87 SE6       30.02F
GRAND PRAIRIE  CLEAR     77  69  78 SE7       30.04S
ADDISON        CLEAR     78  73  83 SE10      30.05S
MESQUITE       MOSUNNY   73  73  98 CALM      30.03F
LANCASTER      SUNNY     75  71  86 CALM      30.03F
$$

NORTH CENTRAL TEXAS

CITY           SKY/WX    TMP DP  RH WIND       PRES   REMARKS
SHRMAN/DENISON SUNNY     77  73  87 SE7       30.04F
GAINESVILLE      N/A     73  70  92 CALM      30.05S
BRIDGEPORT     SUNNY     71  71 100 CALM      30.05S
DENTON         CLEAR     76  71  85 SE6       30.02F
WAXAHACHIE     SUNNY     73  73  98 SE3       30.04F
GRANBURY       SUNNY     77  71  81 CALM      30.04S
$$

WESTERN NORTH TEXAS

CITY           SKY/WX    TMP DP  RH WIND       PRES   REMARKS
WICHITA FALLS  CLEAR     73  69  87 SE5       30.03S
VERNON         SUNNY     72  64  76 SE3       30.06R
BRECKENRIDGE   SUNNY     74  71  88 SE7       30.03F
COMANCHE       CLEAR     72  72 100 CALM      30.05S
$$

CENTRAL AND SOUTH CENTRAL TEXAS

CITY           SKY/WX    TMP DP  RH WIND       PRES   REMARKS
AUSTIN/BERGSTM PTCLDY    73  71  93 CALM      29.99F
WACO           CLEAR     75  71  87 S5        30.01F
HILLSBORO      SUNNY     73  71  92 E6        30.02F
TEMPLE         CLEAR     73  69  87 SE6       30.02S
KILLEEN-GRAY   CLEAR     74  67  77 SE9       30.01F
FORT HOOD      MOCLDY    74  70  88 SE7       30.00S
GEORGETOWN     CLEAR     75  68  78 CALM      30.01F
LAGO VISTA     FAIR      76  70  82 E5        30.03F
SAN MARCOS     CLEAR     72  70  94 CALM      30.02F
NEW BRAUNFELS  CLEAR     74  72  93 NE5       29.98F
RANDOLPH AFB   PTCLDY    74  74  98 CALM      30.00S
SAN ANTONIO    CLEAR     76  70  82 E6        30.01S
STINSON        CLEAR     78  72  81 E5        29.97F
PLEASANTON     NOT AVBL
LA GRANGE      CLEAR     74  72  92 CALM      29.96S
GIDDINGS       SUNNY     73  70  91 CALM      30.02S
$$

EAST TEXAS

CITY           SKY/WX    TMP DP  RH WIND       PRES   REMARKS
PARIS          CLEAR     73  70  88 S5        30.04F
CLARKSVILLE    NOT AVBL
TYLER          PTCLDY    74  72  93 N3        30.02S
LONGVIEW       MOCLDY    72  71  97 CALM      30.01R
PALESTINE      CLOUDY    73  72  97 CALM      30.01F
NACOGDOCHES    MOCLDY   N/A N/A N/A CALM      29.97S
$$

TEXAS HILL COUNTRY AND EDWARDS PLATEAU

CITY           SKY/WX    TMP DP  RH WIND       PRES   REMARKS
LLANO          SUNNY     73  73 100 CALM      30.05F
HORSESHOE BAY  FAIR      74  70  89 SE3       30.01F
KERRVILLE      PTCLDY    72  70  94 CALM      30.05S
FREDERICKSBRG  CLEAR     70  68  92 CALM      30.04F
ROCKSPRINGS    SUNNY     73  68  83 SE3       30.09S
HONDO          CLEAR     76  71  85 E3        30.00F
UVALDE         DRIZZLE   73  70  90 CALM      30.00F
DEL RIO        CLOUDY    77  70  79 E5        29.98F
$$

SOUTHEAST TEXAS

CITY           SKY/WX    TMP DP  RH WIND       PRES   REMARKS
COLLEGE STN    PTCLDY    75  72  90 NE5       29.98F
CALDWELL       MOSUNNY   72  72 100 CALM      30.02S
CROCKETT       CLOUDY    73  72  94 CALM      30.03S
BRENHAM        PTCLDY    75  73  96 N3        29.98F
HUNTSVILLE     CLOUDY    74  72  93 CALM      29.99F FOG
CONROE         CLOUDY    75  72  90 CALM      29.97F
HOUSTON BUSH   CLOUDY    75  73  93 NE7       29.95F
HOUSTON HOBBY  CLOUDY    78  73  84 NE12      29.93F
PERLAND        CLOUDY    79  75  87 E7        29.94F
WHARTON        CLOUDY    73  71  95 NW3       29.95F
$$

THE UPPER TEXAS COAST

CITY           SKY/WX    TMP DP  RH WIND       PRES   REMARKS
ORANGE         PTSUNNY   73  72  95 NE5       29.96S
PORT ARTHUR    CLOUDY    75  73  93 NE7       29.94F
GALVESTON      LGT RAIN  78  76  93 E12       29.93F
ANGLETON       CLOUDY    78  74  87 NE3       29.92F
BAY CITY       PTSUNNY   75  73  93 CALM      29.93F
$$

TEXAS COASTAL BEND, RIO GRANDE PLAINS DEEP SOUTH TEXAS

CITY           SKY/WX    TMP DP  RH WIND       PRES   REMARKS
VICTORIA       CLEAR     73  72  96 N6        29.96F
BEEVILLE       FAIR      72  72 100 CALM      29.96F
ROCKPORT       MOCLDY    83  75  77 NE5       29.94S
PORT ARANSAS   PTSUNNY   82  75  80 SE3       29.94S
PORT LAVACA    SUNNY     76  74  95 NE5       29.94F
CORPUS CHRISTI PTCLDY    78  75  90 SW5       29.95S
KINGSVILLE NAS NOT AVBL
COTULLA        CLEAR     78  72  81 SE6       29.97F
LAREDO         CLEAR     79  73  82 SE8       29.97F
BROWNSVILLE    CLEAR     77  75  93 CALM      29.94S
PORT ISABEL    CLEAR     77  73  87 SW5       29.93S
HEBBRONVILLE   MOSUNNY   75  72  89 S3        29.98F
MCALLEN        PTCLDY    80  74  81 CALM      29.94F
WESLACO        CLEAR     74  53  47 CALM      29.93F
FALFURRIAS     SUNNY     76  72  86 CALM      29.95S
EDINBURG       SUNNY     78  73  84 CALM      29.95F
$$




USA.gov is the U.S. government's official web portal to all federal, state and local government web resources and services.